Flag for United Kingdom Weather past 2 weeks in Peterborough, England, United Kingdom

Now
59 °F

Fog.


Feels Like: 57 °F
Forecast: 60 / 78 °F
Wind: 10 mph from Northeast

Location: Wittering

Current Time: Jul 23, 2014 at 2:49:39 AM

Latest Report: Jul 23, 2014 at 1:50 AM


Visibility: 6 mi

Pressure: 30.24 "Hg

Humidity: 94%

Dew point: 57 °F

Location of PeterboroughLocation

Historic Weather in Peterborough — Graph

°F

Peterborough temperature yesterday

Maximum temperature yesterday: 75 °F (at 2:50 PM)
Minimum temperature yesterday: 57 °F (at 2:50 AM)
Average temperature yesterday: 65 °F

Past Weeks' High & Low Weather Summary

 TemperatureHumidityPressure
High86 °F (Jul 18, 2:50 PM)100% (Jul 8, 12:50 AM)30.24 "Hg (Jul 8, 12:50 AM)
Low50 °F (Jul 8, 3:50 AM)43% (Jul 18, 4:50 PM)29.71 "Hg (Jul 13, 6:50 AM)
Average65 °F77%29.98 "Hg
* Reported Jul 8 12:50 AM — Jul 23 12:50 AM, Peterborough, Weather by CustomWeather, © 2014

Note: Actual official high and low records may vary slightly from our data, if they occured in-between our weather recording intervals... More about our weather records

Advertising

Peterborough weather history for previous 24 hours

 ConditionsComfort  
Time TempWeatherWind HumidityBarometerVisibility
12:50 AM
Jul 23
59 °FPassing clouds.9 mph94%30.24 "HgN/A
5:50 PM
Jul 22
72 °FMild.13 mph69%30.21 "HgN/A
4:50 PM73 °FPassing clouds.14 mph65%30.21 "HgN/A
3:50 PM73 °FPassing clouds.14 mph65%30.21 "HgN/A
2:50 PM75 °FPassing clouds.13 mph57%30.21 "HgN/A
1:50 PM73 °FPassing clouds.13 mph57%30.21 "HgN/A
12:50 PM72 °FScattered clouds.10 mph65%30.24 "HgN/A
11:50 AM72 °FPassing clouds.9 mph65%30.24 "HgN/A
10:50 AM68 °FMild.8 mph73%30.24 "HgN/A
9:50 AM64 °FScattered clouds.6 mph83%30.24 "HgN/A
8:50 AM61 °FLow clouds.7 mph88%30.24 "HgN/A
7:50 AM57 °FFog.7 mph100%30.21 "Hg5 mi
6:50 AM57 °FLow clouds.7 mph100%30.21 "Hg1 mi
5:50 AM57 °FFog.8 mph100%30.21 "Hg1 mi
4:50 AM57 °FPassing clouds.5 mph100%30.21 "Hg1 mi
3:50 AM57 °FFog.3 mph100%30.21 "Hg0 mi
2:50 AM57 °FFog.5 mph100%30.18 "Hg0 mi
Weather by CustomWeather, © 2014

See weather overviewHow to use our weather pages